Regional Weather Roundup
Issued by NWS Raleigh/Durham, NC

Home | Current Version | Previous Version | Text Only | Print | Product List | Glossary On
Versions: 1 2 3 4 5 6 7 8 9 10 11 12 13 14 15 16 17 18 19 20 21 22 23 24 25 26 27 28 29 30 31 32 33 34 35 36 37 38 39 40 41 42 43 44 45 46 47 48 49 50
000
ASUS42 KRAH 220910
RWRRAH
NORTH CAROLINA WEATHER ROUNDUP
NATIONAL WEATHER SERVICE RALEIGH NC
400 AM EST MON DEC 22 2014

NOTE: "FAIR" INDICATES FEW OR NO CLOUDS BELOW 12,000 FEET WITH NO
SIGNIFICANT WEATHER AND/OR OBSTRUCTIONS TO VISIBILITY.

NCZ001-053-055-056-065-067-221000-
WESTERN NORTH CAROLINA

CITY           SKY/WX    TMP DP  RH WIND       PRES   REMARKS
ASHEVILLE      CLOUDY    39  38  96 CALM      30.08F FOG
JEFFERSON      FOG       33  33 100 CALM      30.08F VSB 1/4
MORGANTON      LGT RAIN  40  39  96 CALM      30.18F
HICKORY        LGT RAIN  41  36  82 NE7       30.13F FOG
RUTHERFORDTON  CLOUDY    41  40  95 NE7       30.12F FOG
MOUNT AIRY     CLOUDY    40  32  73 E5        30.18S
BOONE          CLOUDY    33  33 100 CALM      30.09F FOG
$$

NCZ021-022-025-041-071-084-088-221000-
CENTRAL NORTH CAROLINA

CITY           SKY/WX    TMP DP  RH WIND       PRES   REMARKS
CHARLOTTE      CLOUDY    41  38  89 N9        30.12F
GREENSBORO     LGT RAIN  37  34  89 NE9       30.15F FOG     WCI  30
WINSTON-SALEM  LGT RAIN  37  33  85 NE8       30.17F FOG     WCI  31
RALEIGH-DURHAM LGT RAIN  37  33  85 NE7       30.15F WCI  32
FORT BRAGG     RAIN      39  37  93 NE8       30.10F FOG     WCI  34
FAYETTEVILLE   LGT RAIN  40  39  97 N13       30.11F FOG     WCI  32
BURLINGTON     RAIN      37  33  85 N8        30.17S FOG     WCI  31
LAURINBURG     LGT RAIN  41  40  96 N8        30.12S FOG
$$

NCZ011-015-027-028-043-044-047-080-103-221000-
NORTHEASTERN NORTH CAROLINA

CITY           SKY/WX    TMP DP  RH WIND       PRES   REMARKS
ROCKY MT-WILSO RAIN      38  36  92 N12       30.16F FOG     WCI  30
GREENVILLE     RAIN      39  37  93 NE12      30.15F WCI  32
WASHINGTON     CLOUDY    41  39  95 NE8       30.13F
ELIZABETH CITY LGT RAIN  48  40  73 NE15      30.17F
MANTEO         CLOUDY    47  45  91 NE17G25   30.15F
CAPE HATTERAS  LGT RAIN  52  52 100 NE10G20   30.10F FOG
$$

NCZ078-087-090-091-093-098-101-221000-
SOUTHEASTERN NORTH CAROLINA

CITY           SKY/WX    TMP DP  RH WIND       PRES   REMARKS
LUMBERTON      CLOUDY    43  40  89 NE9       30.09S
GOLDSBORO      LGT RAIN  39  39  99 VRB1      30.11F
KINSTON        LGT RAIN  40  39  96 N12       30.12F WCI  33
KENANSVILLE    DRIZZLE   40  39  99 N7        30.12F WCI  35
NEW BERN       LGT RAIN  47  43  86 NE9       30.10F
CHERRY POINT   LGT RAIN  48  46  93 NE16G22   30.08F
BEAUFORT       LGT RAIN  50  49  96 NE9G20    30.06F
JACKSONVILLE   CLOUDY    45  43  93 N10       30.08F
WILMINGTON     LGT RAIN  45  44  97 N7        30.07F
$$



USA.gov is the U.S. government's official web portal to all federal, state and local government web resources and services.